Flag for Austria Weather past 2 weeks in Marchtrenk, Upper Austria, Austria

Now
59 °F

Fog.


Feels Like: 59 °F
Forecast: 53 / 68 °F
Wind: 1 mph from North

Location: Linz / Hoersching-Flughafen

Current Time: Aug 31, 2014 at 1:00:25 AM

Latest Report: Aug 31, 2014 at 12:20 AM


Visibility: 1 mi

Pressure: 30.07 "Hg

Humidity: 100%

Dew point: 59 °F

Location of MarchtrenkLocation

Historic Weather in Marchtrenk — Graph

°F

Marchtrenk temperature yesterday

Maximum temperature yesterday: 66 °F (at 2:50 PM)
Minimum temperature yesterday: 59 °F (at 11:20 PM)
Average temperature yesterday: 63 °F

Past Weeks' High & Low Weather Summary

 TemperatureHumidityPressure
High75 °F (Aug 18, 2:20 PM)100% (Aug 18, 2:50 AM)30.15 "Hg (Aug 18, 2:50 AM)
Low45 °F (Aug 25, 4:20 AM)36% (Aug 28, 5:50 PM)29.74 "Hg (Aug 26, 4:20 PM)
Average60 °F80%30.01 "Hg
* Reported Aug 15 11:20 PM — Aug 30 11:50 PM, Marchtrenk, Weather by CustomWeather, © 2014

Note: Actual official high and low records may vary slightly from our data, if they occured in-between our weather recording intervals... More about our weather records

Advertising

Marchtrenk weather history for previous 24 hours

 ConditionsComfort  
Time TempWeatherWind HumidityBarometerVisibility
11:50 PM
Aug 30
59 °FFog.2 mph100%30.07 "Hg1 mi
11:20 PM59 °FFog.2 mph100%30.07 "Hg1 mi
10:50 PM61 °FCool.2 mph94%30.09 "Hg1 mi
10:20 PM61 °FSnow. Overcast.2 mph100%30.09 "Hg2 mi
9:50 PM63 °FPassing clouds.2 mph94%30.09 "Hg4 mi
9:20 PM63 °FPassing clouds.2 mph94%30.09 "Hg5 mi
8:50 PM64 °FPassing clouds.3 mph94%30.09 "HgN/A
7:50 PM64 °FPartly sunny.2 mph94%30.07 "HgN/A
7:20 PM64 °FPartly sunny.3 mph94%30.07 "HgN/A
6:50 PM66 °FPartly sunny.1 mph83%30.07 "HgN/A
6:20 PM66 °FPartly sunny.1 mph88%30.07 "HgN/A
5:50 PM66 °FPartly sunny.1 mph83%30.07 "HgN/A
5:20 PM66 °FPartly sunny.1 mph83%30.07 "HgN/A
4:50 PM66 °FBroken clouds.2 mph83%30.07 "HgN/A
4:20 PM66 °FSprinkles. Broken clouds.2 mph83%30.07 "HgN/A
3:50 PM66 °FBroken clouds.3 mph83%30.09 "HgN/A
3:20 PM66 °FBroken clouds.2 mph83%30.09 "HgN/A
2:50 PM66 °FBroken clouds.1 mph83%30.09 "HgN/A
2:20 PM64 °FBroken clouds.3 mph88%30.12 "HgN/A
1:50 PM64 °FBroken clouds.2 mph83%30.12 "HgN/A
1:20 PM64 °FBroken clouds.1 mph83%30.12 "HgN/A
12:50 PM64 °FBroken clouds.3 mph88%30.12 "HgN/A
12:20 PM63 °FBroken clouds.1 mph94%30.12 "HgN/A
11:50 AM63 °FLight rain. Broken clouds.1 mph88%30.12 "HgN/A
11:20 AM63 °FLight rain. Broken clouds.2 mph94%30.12 "HgN/A
10:50 AM63 °FLight rain. Broken clouds.2 mph94%30.12 "Hg6 mi
10:20 AM61 °FLight rain. Broken clouds.2 mph94%30.12 "Hg5 mi
9:50 AM61 °FLight rain. Broken clouds.2 mph94%30.12 "Hg4 mi
9:20 AM61 °FLight rain. Fog.2 mph94%30.12 "Hg2 mi
8:50 AM61 °FLight rain. Broken clouds.1 mph94%30.09 "Hg4 mi
8:20 AM61 °FLight rain. Broken clouds.2 mph94%30.09 "Hg5 mi
7:50 AM61 °FRain. Broken clouds.3 mph94%30.09 "Hg4 mi
7:20 AM61 °FRain. Broken clouds.5 mph94%30.09 "Hg2 mi
6:50 AM61 °FLight rain. Partly cloudy.3 mph94%30.09 "Hg4 mi
6:20 AM61 °FRain. Partly cloudy.3 mph94%30.07 "Hg2 mi
5:50 AM61 °FRain. Partly cloudy.2 mph94%30.07 "Hg4 mi
5:20 AM61 °FSprinkles. Passing clouds.1 mph94%30.07 "Hg3 mi
4:50 AM61 °FPassing clouds.2 mph94%30.07 "Hg5 mi
4:20 AM61 °FSprinkles. Partly cloudy.2 mph94%30.07 "Hg2 mi
3:50 AM61 °FSprinkles. Partly cloudy.1 mph100%30.07 "Hg4 mi
3:20 AM61 °FSprinkles. Fog.1 mph100%30.07 "Hg3 mi
2:50 AM61 °FPartly cloudy.2 mph100%30.07 "Hg4 mi
2:20 AM61 °FSprinkles. Passing clouds.3 mph100%30.07 "Hg4 mi
1:50 AM61 °FLight rain. Low clouds.1 mph100%30.07 "Hg5 mi
1:20 AM63 °FOvercast.2 mph94%30.07 "Hg4 mi
Weather by CustomWeather, © 2014

See weather overviewHow to use our weather pages